THORAD AGENA D DEB

Satellite information

Favourite Embed

Satellite Type and Status

DEBRISIN ORBIT

Key statistics

Satellite THORAD AGENA D DEB at a glance.

Uptime

20123

Days in orbit

Revolutions

≈ 14.0

Per day

Orbit

SSO

Sun Synchronous Orbit

Inclination

100.0

Latest

Satellite identification and parameters

Extended collection of information and parameters for THORAD AGENA D DEB.

Object identification

Identified? True

Debris? True

Object name: THORAD AGENA D DEB

International designator: 1970-025CA

Object number (NORAD): 4716

Object ID (CCSDS): 4716

Country: UNITED STATES OF AMERICA (US)

Current information (Y/N): Y

RCS size: MEDIUM

Orbital parameters

Period: 102.505 minutes

Inclination: 99.9502 deg

SMA: 7255.326 km

Apoapsis: 879.828 km

Periapsis: 874.553 km

RAAN: 239.7109 deg

Eccentricy: 0.0003635

Argument of periapsis: 316.8372 deg

Mean anomaly: 166.8294 deg

Mean motion: 14.04809366 rev/day

Mean motion (dot): 0.00001907 rev/day2

B* drag term: 0.0012212 1/REarth

Two-line elements (TLE)

Creation date: May 12, 2025, 2:31 a.m.

Reference frame: TEME

Reference center: EARTH

Epoch: May 11, 2025, 7:33 p.m. UTC

TLE line 0: 0 THORAD AGENA D DEB

TLE line 1: 1 04716U 70025CA 25131.81527399 .00001907 00000-0 12212-2 0 9995

TLE line 2: 2 04716 99.9502 239.7109 0003635 316.8372 166.8294 14.04809366769113

Live tracking on map

Real-time ground track for satellite THORAD AGENA D DEB.

In-orbit conjunctions

A list of the most updated potential collisions computed for object THORAD AGENA D DEB.

Target Orbit TCA Probability of collision Miss distance Type
CZ-6A DEB LEO 2025-01-28 07:57:33 0.0002522479 61.0 (m) DEBRIS
FENGYUN 1C DEB SSO 2024-09-13 03:07:27 0.0001454633 60.0 (m) DEBRIS

Associated space launch

Meteorological research and development satellite

THORAD AGENA D DEB was lifted into orbit during the mission ‘Thorad SLV-2G Agena D | Nimbus 4’, on board a Thorad SLV-2G Agena D space rocket.

The launch took place on April 8, 1970, 8:17 a.m. from Space Launch Complex 2E.

For more information about the launch, click the button.

Launch to space Thorad SLV-2G Agena D | Nimbus 4
Thorad SLV-2G Agena D | Nimbus 4

Agency: N/A

Status: Launch Successful

Launch date: April 8, 1970, 8:17 a.m. UTC

Rocket: Thorad SLV-2G Agena D

Launch pad: Space Launch Complex 2E

Location: Vandenberg SFB, CA, USA

...

Latest news about this satellite

There are no fresh news available about this satellite. Check back as we update our databases every day.


Newsletter sign-up

Weekly statistics, charts and insights to help you stay on top of the space industry.